CAPE
675 1065 1063 954 966 1184 1425 1737 1809 1716 1885 2040 1971 1856 1959 1992 1976 1983 2032 2058 2248 2564 2556 2704 2841 2728 2647 2417 2294 2513 3117 2858 2813 3224 3899 3752 3860 3354 3094 4317 4208 3722 3401 3277 2894 3246 3354 3207 3074 3570 4036 3660 3028 2647 2672 2689 2659 2709 2865 2791 2934 2992 3452 3885 3446 2559 2833 2017 1894 1391 1285 1225 998 1158 1269 1084 1061 923 1120 1393 1560 1136 786 414 485
900 879 952 817 908 1031 1080 1262 1526 1566 1468 1564 1770 1903 2083 2131 2154 2064 1892 1941 2109 2317 2651 2501 2352 2746 2480 2566 2514 2634 3405 3491 3286 2862 3546 4139 4095 3377 2356 2851 2854 3220 3822 4367 3600 2648 3706 3863 3288 3141 3114 2778 2392 2438 2146 1932 1891 2260 2574 2787 2838 2998 3308 3035 3066 2748 2748 2683 2250 2086 1518 905 969 1039 1150 1087 1016 1365 1181 1271 1224 1037 560 339 318
1207 1091 1141 1068 999 908 952 1186 1059 1209 1142 1071 1254 1467 1792 2037 2061 2082 1870 1858 2051 2173 2406 2334 2439 2588 2270 2350 2745 2891 3626 3585 2666 3001 3085 3660 4018 3438 2745 3065 3056 3205 3094 2908 2749 2789 2625 2763 2704 2753 1894 1773 2144 2405 1922 1772 1640 1673 1413 1260 1244 1331 1264 1809 2406 2605 2673 2739 2472 1796 1232 1215 1274 1270 1209 1003 1340 1182 1554 1120 798 750 702 505 303
1558 1736 1601 1394 1190 996 1049 917 786 1169 920 881 747 1262 1270 1477 1892 1972 1916 1796 1854 2106 2127 2243 2343 2787 2290 2672 3281 2718 3434 3010 2950 2694 3000 3887 3938 3344 2835 3222 3804 3625 3257 2644 2721 2708 2332 2398 2376 2129 1996 1883 1928 2000 1508 1010 839 832 1037 1616 1653 1866 2022 2196 2380 2716 2738 2686 2916 2550 2188 2101 2305 1918 1434 1194 968 1032 1130 1061 857 736 508 234 184
1829 1733 1988 2029 1580 1289 898 910 759 1004 1086 928 910 977 1062 1191 1425 1748 1868 1678 1594 1850 2064 2112 2238 3020 2609 2707 3187 3194 3268 3356 2896 2418 2670 2673 2520 2357 2534 2748 2744 2796 2720 2593 2574 2565 2493 2252 1976 2000 2032 1868 1733 1548 1478 1316 1178 1225 1226 1029 1252 1264 1498 1626 1828 2056 2482 2579 2664 2763 2761 2491 2218 1787 1450 1364 1433 1591 1880 1824 800 554 480 482 366
1887 2454 2800 2843 2332 1703 1320 1117 926 578 727 978 862 836 912 1066 1034 1055 1411 1626 1701 1552 1794 1995 1992 2922 3040 2479 2575 2834 2766 2867 3072 2857 2631 2495 2641 2759 2474 2580 2629 2744 2778 2418 2438 2236 1884 1961 1750 1612 1538 1426 1406 1297 1356 1517 1371 980 996 1103 1152 1280 1607 1740 1795 2181 2164 2528 2683 2337 2182 1239 1188 1454 1211 1182 1014 853 913 1165 1805 1893 1745 936 618
2605 2768 3256 3404 3304 2740 1749 1445 1126 877 826 950 881 885 915 995 683 909 1123 1410 1617 1564 1479 1924 1888 1879 2652 2257 1947 2527 2925 2594 2786 2964 2819 2775 2661 2853 2524 2517 2350 1987 2357 2033 1876 1917 1974 1785 1661 1517 1575 1474 1363 1328 1376 1284 1152 1481 1339 1397 1333 1360 1343 1173 1108 1044 1126 1141 1026 912 882 730 814 1154 1231 1417 1557 1352 1650 1600 1884 1244 1584 1472 1868
3059 3311 3335 3385 3406 2899 2346 1865 1359 1142 974 1091 974 1003 1026 996 1049 896 563 853 1296 1517 1462 1492 1873 1945 1912 1912 1800 1764 2184 2422 2534 2726 2704 2636 2596 2844 3065 2704 2539 2558 2469 2457 1997 1552 1254 1135 1298 1500 1652 1651 1469 1679 1480 1040 881 963 847 877 904 939 1208 1279 1170 1152 1584 1368 1277 802 876 1668 1746 1345 1043 1468 1730 2049 1346 884 1205 1532 1599 3111 2068
3328 3077 3047 2985 3053 3082 2636 2216 1904 1569 1450 1440 1375 1282 1251 1214 1190 1172 1014 735 1169 1318 1466 1381 1527 1725 1669 1862 1807 1517 1489 1807 2033 2233 2564 2948 2861 2611 2571 2486 2469 2233 2071 1823 1701 1497 1105 1200 927 1292 1275 1807 1927 2882 2634 2392 1548 1398 1726 1615 1901 1955 2119 2110 1978 2202 1900 1584 1795 1667 1198 1393 1435 1564 696 722 1037 1172 970 828 1291 972 972 1152 1864
2777 2532 2434 2480 2969 3272 3017 2806 2779 2525 2348 2394 2490 2176 1654 1779 1488 1523 1340 1324 1366 1593 1433 1300 1345 1362 1540 1751 1508 1323 1164 881 1317 1811 1733 1915 2379 2018 1544 1254 1128 1799 1997 1940 1560 1160 1085 1097 1114 1199 1694 1222 2605 2798 2001 1710 1990 1990 2072 2114 2975 3106 2931 2806 2766 2178 1891 1580 1001 643 533 566 602 1050 1052 1209 1345 1919 2094 1988 1944 1928 2454 2534 3060
2139 2010 2126 2480 2489 2999 3159 3246 3368 2737 3161 3139 3252 3350 2474 1939 1672 1561 1753 1773 2036 2180 1920 1887 1638 1332 1174 1436 1709 1405 1101 772 1569 1295 1421 1577 1674 1943 1930 2153 2262 2250 2132 2208 1990 1527 1164 975 872 812 2227 2648 2826 3056 3824 3077 3071 2845 2152 1847 2467 2847 2480 2421 2232 1598 1690 1245 1012 1177 1254 1643 2021 2222 2465 2208 2414 2475 2695 3070 2970 2884 2956 2891 2838
1724 1462 1402 1787 2176 2520 2723 2853 2410 2824 3282 4070 3852 3497 3473 3274 3054 2302 1658 1833 2449 2276 2204 2062 2102 1886 1585 1318 1275 1093 1113 488 1289 1172 1273 1372 1787 1544 1054 996 1069 1060 1260 1276 1247 1131 973 879 454 462 447 808 776 3136 3671 3224 2748 2588 2288 2040 1871 1609 1822 2788 3154 2925 2807 2224 2352 2563 2226 2022 2594 2977 2825 2844 3002 2839 3120 2969 3420 3245 2880 2703 2620
2033 2258 2010 1949 1866 1896 1892 2200 2761 2497 2060 2471 3845 3757 4105 4096 3451 2928 2473 2381 2162 2271 2254 2007 1881 1751 1433 1502 812 524 458 1054 998 1168 1298 1247 1081 1632 974 731 581 694 526 716 788 851 1607 1678 1204 611 760 1058 608 609 1716 3852 3485 2831 2734 2587 1877 1561 1416 1249 986 2078 2567 3135 3043 2770 2606 2653 2980 3079 3110 3058 3456 3245 3163 2857 3072 3149 3070 2861 2855
1535 1708 1507 1559 2258 1928 2328 2055 1770 1973 2357 2336 2502 2411 2420 2794 2850 2616 2542 2322 2297 2311 2005 2138 1844 1790 1483 1134 1431 635 579 1271 1033 1180 1186 966 986 835 1052 724 775 672 757 770 848 819 1087 1213 1385 1901 1413 1651 2660 3391 2120 1853 2697 4316 4591 4150 4090 4276 3390 3307 3160 2956 2919 2720 2617 2673 3023 3272 3567 3510 3434 3056 2849 2852 2624 2530 2732 2424 2420 2489 2580
932 960 896 1083 1412 1381 1777 2149 1987 1758 1865 1776 1822 1922 2154 2309 2180 2524 2430 2220 2170 2255 1839 1882 1502 1688 1239 951 892 534 1292 814 967 865 791 728 695 650 1090 864 767 557 526 759 1273 1172 1141 1051 1061 1062 1585 3041 2729 2512 3776 3834 3749 3636 3723 3391 3311 3146 3063 2934 3083 3366 3162 2839 2818 2586 3116 3368 3282 2924 2538 2434 2278 2382 2340 2499 2430 2329 2222 2272 2320
729 614 628 731 806 916 1011 1051 1049 1211 1346 1130 1182 1368 1412 1609 1472 1781 1856 2015 1820 1610 2117 1907 2150 1600 1647 1335 1079 952 833 1208 899 909 892 931 942 1046 1552 1753 1569 1225 1085 1147 1141 1511 1320 1840 2751 2638 2937 2353 2696 2812 2747 2776 3427 3407 2944 2675 2956 3370 3052 2806 2508 2617 3068 3852 3025 2982 2696 2346 1910 1802 1660 1516 1783 2224 2423 2266 2225 2398 2412 1886 1940
625 614 599 631 608 584 717 841 777 671 620 611 742 818 765 1051 1185 1014 1325 1594 1588 1609 1282 1430 1593 1558 1290 975 1003 1115 827 974 1434 1249 1281 1178 1143 1883 2056 1900 1703 1648 1094 1099 1162 2438 1986 2389 2973 2399 2481 2079 2022 2261 2487 2430 2584 2721 2939 2935 2824 2892 2351 2396 2498 2146 1894 1926 1986 1915 1834 1682 1618 1562 1475 1464 1528 1527 1609 1852 2345 2328 2238 1857 1707
621 628 716 704 666 619 599 508 434 429 402 456 456 420 444 536 570 562 655 874 1036 1059 902 1413 1512 1530 1059 1148 1139 1504 1689 1370 1423 1703 1690 1585 1485 1656 2302 1834 2202 920 1016 1287 1600 1583 2047 2647 3042 2767 2066 1701 1575 1702 1694 1560 1756 2170 2306 2262 2149 2235 2264 1931 2413 2184 2206 2291 2214 2202 1910 1727 1799 1894 1832 1658 1601 1664 1752 2188 2348 2351 2028 1858 1786
437 454 506 492 492 498 513 434 516 407 396 262 364 466 454 408 432 431 432 646 786 892 1244 1280 1290 1054 896 1096 1404 1442 1387 1161 1012 1326 1471 1450 1445 1753 2080 2174 1394 1451 1331 1574 1404 1401 1660 1560 1560 1572 1491 1299 1236 1204 1282 1352 1298 1203 1321 1548 1856 1953 2186 1848 1608 1474 1584 1355 1291 1682 3120 2754 3130 2962 2703 2360 2251 2129 1942 2104 2296 2232 2059 2161 1984
476 457 476 479 371 401 430 380 286 259 282 326 255 372 495 522 508 605 632 603 584 717 1063 1041 1008 1000 963 1182 1337 1169 1087 1042 1050 1202 1267 1220 1192 1598 2102 1565 1338 1135 1743 1663 1608 1375 1347 1149 1132 1430 1425 1381 1282 1204 1128 1087 1049 1064 1092 1051 1098 1676 1353 1363 1201 1036 955 944 929 840 695 522 820 965 813 598 1874 3427 3156 2769 2448 2007 2137 2040 1998
0 0 122 275 340 308 296 334 128 101 0 240 121 0 0 229 413 574 583 585 597 636 623 758 748 798 752 901 930 935 865 758 793 1006 1045 1116 1196 1197 1288 1298 1312 1380 1477 1501 1442 1486 1423 1222 1116 1062 1189 1200 1129 1060 916 801 783 827 874 882 876 870 848 828 781 790 796 713 570 437 347 524 553 494 597 886 694 1064 1459 1764 2534 2910 2685 2278 2290
0 0 0 156 189 227 175 14 129 10 0 21 193 195 185 98 34 143 230 225 292 388 360 582 510 604 559 502 593 636 719 692 722 764 849 984 1016 984 980 1021 1053 938 1109 1050 1045 1040 914 990 936 883 828 738 705 635 613 606 566 570 596 647 741 792 815 783 711 924 578 499 432 364 423 563 560 519 539 595 649 974 1206 1314 1159 1070 1377 1597 1878
0 0 0 0 124 230 0 0 0 19 63 1 56 152 167 4 10 32 69 93 86 170 270 231 302 178 171 215 222 269 342 468 506 629 660 691 669 638 744 840 818 785 730 646 833 794 772 651 686 833 840 803 745 594 448 414 406 398 404 420 470 546 631 685 656 805 959 460 303 526 521 582 603 510 495 655 637 936 882 877 1050 1403 1860 1863 1944
36 85 198 0 0 0 0 0 0 0 0 1 18 80 2 38 60 47 70 76 23 131 234 270 202 84 0 1 8 64 102 162 116 271 441 478 440 483 532 595 640 682 612 544 422 508 500 384 440 467 476 438 347 258 191 171 222 262 305 344 413 414 399 453 1134 664 1106 1021 761 785 647 386 303 311 266 598 748 886 731 788 1402 1635 1837 1705 1623
0 0 0 0 0 14 0 0 0 0 0 0 87 19 1 0 2 2 23 27 25 37 41 12 75 132 115 18 0 0 0 0 186 209 223 101 174 283 361 401 448 412 405 341 283 265 243 230 222 208 196 182 131 94 76 162 199 214 208 234 224 211 614 1109 863 518 626 558 402 232 76 90 120 209 441 637 321 335 936 1067 1259 1105 774 793 877
0 0 0 0 0 0 0 0 0 0 0 0 59 65 71 23 3 3 0 0 0 0 0 67 82 109 76 59 1 0 0 0 2 110 184 178 155 194 230 253 268 277 261 219 201 235 201 179 139 100 29 0 13 131 322 565 471 244 83 66 80 353 908 512 214 154 224 140 80 10 0 0 0 6 51 140 588 496 530 851 714 354 208 96 66
0 0 0 0 0 0 0 0 0 0 0 0 0 0 0 0 0 0 0 0 0 8 0 0 0 0 0 2 2 3 7 17 2 0 0 32 82 100 204 348 148 130 139 138 68 58 72 22 0 1 2 8 14 6 7 0 68 182 116 219 428 197 19 34 0 0 1 19 0 0 0 0 0 1 21 5 0 13 9 295 134 64 25 8 67
0 0 0 0 0 0 0 0 0 0 0 0 0 0 0 0 0 0 0 0 0 0 0 0 0 0 0 0 0 2 5 0 0 0 0 0 0 0 0 0 0 0 0 0 0 0 0 0 11 64 62 43 32 16 27 98 147 217 74 23 0 0 0 0 0 0 0 0 0 0 0 0 0 0 0 0 0 0 0 0 0 0 0 4 51
0 0 0 0 0 0 0 0 0 0 0 0 0 0 0 0 0 0 0 0 0 0 0 0 0 0 0 0 0 0 0 0 0 0 0 0 0 0 0 0 0 0 0 0 0 0 0 0 15 50 96 143 145 238 354 401 423 14 0 0 0 0 0 0 0 0 0 0 0 0 0 0 0 0 0 0 0 0 0 0 0 0 0 8 19
0 0 0 0 0 0 0 0 0 0 0 0 0 0 0 0 0 0 0 0 0 0 0 0 0 0 0 0 0 0 0 0 0 0 0 0 0 0 0 0 0 0 0 0 0 0 0 0 1 0 2 13 15 2 0 0 0 0 0 0 0 0 0 0 0 0 0 0 0 0 0 0 0 0 0 0 0 0 0 0 0 0 0 0 0
0 0 0 0 0 0 0 0 0 0 0 0 0 0 0 0 0 0 0 0 0 0 0 0 0 0 0 0 0 0 0 0 0 0 0 0 0 0 0 0 0 0 0 0 5 135 0 0 1 2 14 13 0 0 0 0 0 0 0 0 0 0 0 0 0 0 0 0 0 0 0 0 0 0 0 0 0 0 0 0 0 0 0 0 0
0 0 0 0 0 0 0 0 0 0 0 0 0 0 0 0 0 0 0 0 0 0 0 0 0 0 0 0 0 0 0 0 0 0 0 0 0 0 0 0 0 0 0 0 0 0 0 0 0 0 0 0 0 0 0 0 0 0 0 0 0 0 0 0 0 0 0 0 0 0 0 0 0 0 0 0 0 0 0 0 0 0 0 0 0
0 0 0 0 0 0 0 0 0 0 0 0 0 0 0 0 0 2 0 0 0 0 0 0 0 0 0 0 0 0 0 0 0 0 0 0 0 0 0 0 0 0 0 0 0 0 0 0 0 0 0 0 0 0 1 0 0 0 0 0 0 0 0 0 0 0 0 0 0 0 0 0 0 0 0 0 0 0 0 0 0 0 0 0 0
0 0 0 0 0 0 0 0 0 0 0 0 0 0 0 0 0 0 0 0 0 0 0 0 0 0 0 0 0 0 0 0 0 0 0 0 0 0 0 0 0 0 0 0 0 0 0 0 0 0 0 0 0 0 0 0 0 0 0 0 0 0 0 0 0 0 0 0 0 0 0 0 0 0 0 0 0 0 0 0 0 0 0 0 0
0 0 0 0 0 0 0 0 0 0 0 0 0 0 0 0 0 0 0 0 0 0 2 1 0 0 0 0 0 0 0 0 0 0 0 0 0 0 0 0 0 0 0 0 0 0 0 0 0 0 0 0 0 0 0 0 0 0 0 0 0 0 0 0 0 0 0 0 0 0 0 0 0 0 0 0 0 0 0 0 0 0 0 0 0
0 0 0 0 0 0 0 0 0 0 0 0 0 0 0 0 0 0 0 0 0 0 0 3 1 0 0 0 0 0 0 0 0 0 0 0 0 0 0 0 0 0 1 12 1 0 0 0 0 0 0 0 0 0 0 0 0 0 0 0 0 0 0 0 0 0 0 0 0 2 0 0 1 5 3 0 0 0 0 0 0 0 0 0 0
0 0 0 0 0 0 0 0 0 0 0 0 0 0 0 0 0 0 0 0 0 0 0 0 0 14 0 0 0 0 0 0 0 0 0 0 0 0 0 0 0 0 0 0 0 0 0 1 4 1 0 0 0 0 0 0 1 3 2 4 4 3 4 2 0 0 0 0 0 0 1 0 0 0 0 0 0 0 0 0 0 0 0 0 0
0 0 0 0 0 0 0 0 0 0 0 0 0 0 0 0 0 0 0 0 0 0 0 0 0 0 0 3 4 0 0 0 0 0 0 0 0 0 0 0 0 1 0 0 0 0 0 0 0 0 0 0 1 4 2 7 11 9 8 9 9 9 2 0 0 4 4 0 0 0 0 0 0 0 0 0 0 0 0 0 0 0 0 0 0
0 0 0 0 0 0 0 0 0 0 0 0 0 0 0 0 0 0 0 0 0 0 0 0 0 0 0 0 0 0 0 0 0 0 0 0 0 0 0 0 0 0 0 0 0 0 1 2 4 7 8 9 10 18 16 10 12 10 15 11 10 8 6 4 3 4 0 0 0 0 0 0 0 0 0 0 0 0 1 4 0 1 0 0 0
0 0 0 0 0 0 0 0 0 0 0 0 0 0 0 0 0 0 0 0 0 0 0 0 0 0 1 0 0 0 0 0 0 0 0 0 0 0 0 0 0 0 0 0 0 1 1 0 0 0 2 11 14 12 10 10 8 8 8 10 11 8 5 4 1 0 0 0 0 0 0 0 0 0 0 0 3 1 0 0 0 0 0 0 0
0 0 0 0 0 0 0 0 0 0 0 0 0 0 0 0 0 0 0 0 0 0 0 0 0 0 0 0 0 0 0 0 0 0 0 0 0 0 0 0 0 0 0 0 0 7 0 0 0 0 0 2 3 2 2 1 0 0 4 13 11 10 8 8 5 4 3 3 3 1 0 0 0 0 0 0 0 0 0 0 0 0 4 6 1
0 0 0 0 0 0 0 0 0 0 0 0 0 0 0 0 0 0 0 0 0 0 0 0 1 1 0 0 0 0 0 0 0 0 0 0 0 0 0 0 0 0 0 0 1 1 0 0 0 0 2 3 4 2 0 0 0 0 0 0 0 0 1 3 3 5 6 6 7 4 3 2 1 1 1 0 0 0 1 0 0 0 0 0 0
0 0 0 0 0 0 0 0 0 0 0 0 0 0 0 0 0 0 0 0 0 0 0 0 0 2 0 0 0 0 0 0 0 0 0 0 0 0 0 0 0 0 0 0 0 0 3 4 4 3 2 4 5 4 4 3 2 0 2 2 3 3 5 5 5 5 5 4 6 4 4 3 2 1 1 1 0 0 0 0 3 6 6 4 5
0 0 0 0 0 0 0 0 0 0 0 0 0 0 0 0 0 0 0 0 0 0 0 0 0 0 3 0 0 0 0 0 0 0 0 0 0 0 0 0 0 0 0 1 2 3 4 4 4 6 8 8 8 9 7 7 7 6 5 4 3 3 4 7 8 10 10 9 8 8 6 3 4 5 4 4 6 4 1 1 2 1 0 3 3
0 0 0 0 0 0 0 0 0 0 0 0 0 0 0 0 0 1 0 0 0 0 0 0 0 0 0 0 2 1 0 0 0 0 0 0 0 0 0 2 1 4 5 4 4 5 5 4 6 8 7 7 8 8 6 6 8 7 8 8 9 8 10 6 1 1 3 8 8 10 11 9 7 7 7 5 4 8 6 6 5 0 0 0 0
0 0 0 0 0 0 0 0 0 0 0 0 0 0 0 0 0 0 0 0 0 0 0 2 1 1 1 0 0 0 0 0 0 0 0 0 0 2 4 2 4 5 5 5 6 6 6 7 6 7 8 8 8 8 8 9 8 7 9 8 9 0 0 0 1 0 1 2 2 0 0 0 0 2 6 6 4 4 8 8 9 9 6 5 2
0 0 0 0 0 0 0 0 0 0 0 0 0 0 0 0 0 0 0 0 0 0 0 0 0 0 0 0 0 2 2 0 1 2 2 3 3 2 3 4 5 6 5 4 6 5 5 5 8 11 10 11 10 12 10 8 9 10 11 6 0 0 0 0 0 0 0 0 0 0 0 0 0 2 4 8 10 4 4 3 7 8 10 9 8
0 0 0 0 0 0 0 0 0 0 0 0 0 0 0 0 0 0 0 0 0 0 0 0 0 0 0 0 1 2 1 1 1 0 0 2 3 4 7 8 8 6 7 5 5 5 4 5 5 6 7 8 8 9 10 9 9 9 8 2 0 0 0 1 0 1 0 0 0 0 0 0 0 3 5 5 5 4 5 4 5 5 6 8 8
1 0 0 0 0 0 0 0 0 0 0 0 0 0 0 0 0 0 0 0 0 0 0 0 0 0 0 2 2 2 2 1 0 0 3 5 5 5 5 6 8 7 7 5 4 4 4 2 2 3 3 6 8 9 8 9 10 11 12 0 0 0 0 0 0 0 0 0 0 0 0 0 0 0 0 0 0 0 2 3 3 4 4 5 7
0 0 0 0 0 1 0 0 0 0 0 0 0 0 0 0 0 0 0 0 0 0 0 0 0 0 2 1 0 1 0 1 2 2 2 2 4 5 6 6 8 7 5 5 5 1 2 4 6 7 7 9 6 5 8 10 11 6 0 0 0 1 0 0 0 0 0 0 0 0 0 0 0 0 0 0 0 1 2 3 4 4 5 6 8
1 0 1 0 0 0 0 0 0 0 0 0 0 0 0 0 0 0 0 0 0 1 3 3 0 1 0 1 3 3 3 1 1 1 4 4 4 4 4 3 0 0 3 4 2 3 4 0 1 5 3 0 4 6 10 8 10 1 2 2 1 1 0 0 0 0 0 0 0 0 0 0 0 1 0 0 0 1 3 3 4 5 6 4 4
Wind_Speed
16 16 17 16 16 15 14 13 11 11 11 13 12 12 12 11 12 11 13 11 11 12 11 9 9 9 7 9 6 8 7 7 6 6 8 5 5 7 8 5 2 3 2 1 1 3 2 2 2 2 3 3 3 3 4 5 5 5 6 5 5 5 6 5 3 3 4 5 5 5 8 7 5 9 7 7 6 7 6 4 6 6 6 6 6
15 18 15 18 17 16 15 16 14 13 12 13 13 13 12 13 12 12 12 14 11 11 12 11 10 9 8 8 8 8 10 8 6 7 7 6 4 4 4 6 4 2 2 2 2 2 3 2 0 1 2 1 3 4 4 5 5 6 6 6 5 5 6 5 4 4 4 4 5 6 4 4 3 6 6 4 3 5 3 4 4 4 5 6 7
14 17 16 17 17 16 16 16 16 14 13 14 13 13 15 13 14 14 13 15 14 11 13 11 11 12 9 10 10 8 10 9 8 7 7 7 6 3 5 9 3 3 2 2 1 2 1 1 0 1 1 2 4 4 4 6 7 8 9 8 8 6 5 5 5 2 3 4 4 3 3 3 1 1 1 1 3 2 2 3 6 8 7 7 6
14 15 16 16 16 16 16 16 15 15 15 16 15 14 15 16 15 15 15 15 15 15 12 12 14 13 11 10 11 9 9 8 8 9 9 8 7 7 5 5 6 5 4 4 4 3 3 2 2 2 4 5 6 7 7 6 6 6 6 6 5 5 6 4 2 2 2 3 4 4 4 3 1 2 2 1 2 3 4 5 6 7 8 7 6
15 16 16 16 15 14 16 16 15 15 15 17 16 16 16 16 17 16 18 17 15 16 17 14 15 16 13 12 12 10 9 9 8 7 9 9 9 8 8 8 7 6 5 5 5 5 5 5 4 4 3 4 4 3 4 3 5 5 5 6 6 5 6 6 6 5 4 4 5 5 5 4 2 1 2 4 4 3 4 6 8 8 7 7 7
17 17 17 17 16 15 15 15 15 16 16 16 16 17 17 17 17 18 18 18 17 16 18 17 16 16 15 13 13 12 11 10 10 8 8 9 11 10 10 9 8 8 7 6 6 4 4 3 4 4 5 5 4 4 5 6 6 4 3 3 4 6 6 6 6 5 3 3 3 4 4 5 5 5 4 3 4 6 6 7 7 8 9 9 10
19 19 19 17 17 16 16 15 15 16 18 18 18 19 18 19 18 17 21 19 18 18 18 19 19 17 16 15 14 13 13 12 12 11 9 10 10 11 11 11 10 9 9 7 6 6 5 5 5 5 4 5 5 4 3 2 2 2 3 4 4 4 4 4 5 5 5 4 4 4 4 5 7 8 8 7 6 5 6 8 9 10 10 11 12
22 22 21 19 17 16 16 17 14 15 18 20 20 20 21 20 20 18 19 20 20 19 18 20 21 19 18 17 16 16 16 14 14 14 13 12 12 12 12 11 11 10 9 9 8 8 7 6 6 6 6 6 5 5 4 4 5 4 5 5 6 7 7 7 7 7 6 5 5 5 6 7 6 5 6 7 8 9 10 11 11 12 11 14 14
24 23 22 21 19 18 18 18 18 17 17 19 21 21 22 22 21 22 22 20 21 21 20 20 21 21 20 19 19 18 17 18 17 17 16 14 13 13 13 12 12 12 11 9 9 10 9 8 7 7 9 9 8 11 12 14 12 9 10 11 11 10 9 8 8 9 9 8 8 9 8 9 9 9 9 11 12 13 14 12 12 12 13 13 15
25 24 24 23 23 24 22 21 21 22 22 21 21 21 22 23 24 24 23 22 22 23 22 22 21 21 21 22 21 19 19 21 21 19 21 19 16 16 16 15 11 12 13 12 10 10 10 9 9 8 8 9 17 17 11 6 7 8 10 10 10 10 10 9 9 9 10 10 9 9 10 11 11 13 13 12 13 14 13 13 12 13 13 12 14
20 21 22 23 23 26 26 25 25 23 25 24 23 22 22 23 25 26 25 25 25 25 24 23 23 23 22 23 23 21 22 23 30 33 31 27 21 20 18 16 15 15 15 15 12 11 10 9 9 9 12 15 15 15 14 11 9 9 7 7 9 9 9 9 10 10 11 10 11 12 12 11 12 14 13 11 10 10 12 13 12 12 12 11 10
19 19 18 19 20 21 24 25 26 24 26 27 27 25 25 23 23 25 26 27 29 27 26 25 25 24 24 24 23 24 24 31 37 33 31 29 24 19 17 17 17 18 17 15 15 13 12 11 11 11 11 12 11 15 15 14 12 11 9 8 8 7 8 9 10 9 9 10 10 11 12 11 11 13 12 11 11 9 10 10 10 11 11 9 9
21 21 20 19 19 20 22 23 24 26 24 22 28 29 29 28 26 25 25 26 28 29 29 28 27 26 25 26 24 24 25 42 37 36 35 32 28 22 19 18 18 18 18 18 17 17 16 15 14 14 14 15 15 14 14 16 17 14 13 12 11 9 7 6 7 8 7 8 9 10 10 10 9 11 13 13 13 10 11 10 11 11 10 7 7
29 27 25 20 22 22 23 23 23 23 23 25 26 26 27 29 28 28 27 26 26 27 28 29 29 31 29 27 28 27 34 43 37 37 37 34 32 25 21 19 19 19 19 19 18 18 19 17 16 16 17 17 23 22 16 14 15 18 16 18 15 13 12 11 10 8 9 9 8 9 10 10 10 11 13 13 12 11 10 8 10 7 6 4 4
34 33 34 36 33 28 21 23 24 23 24 25 25 24 26 29 29 29 30 31 31 29 28 29 32 33 32 31 32 34 48 45 43 40 38 36 34 28 24 21 20 20 19 19 19 18 19 18 18 17 23 33 27 26 26 24 23 19 18 18 16 17 14 13 13 13 13 13 12 10 11 12 11 11 12 13 12 11 11 10 9 8 6 6 8
37 37 37 36 31 31 33 30 25 23 25 26 25 24 24 25 26 28 29 31 31 32 31 30 32 39 43 44 43 48 45 49 44 43 40 39 35 29 26 23 21 20 20 21 22 22 21 26 25 30 34 31 30 30 31 28 26 22 18 15 15 16 15 14 14 15 14 15 14 13 13 12 15 13 12 12 12 11 11 12 13 12 9 9 9
41 40 40 37 34 33 33 33 34 35 33 29 26 26 27 29 31 31 28 28 28 33 32 31 38 40 42 44 46 42 45 48 46 46 45 41 34 31 27 25 22 21 21 22 24 35 36 33 32 31 30 33 31 33 31 30 27 23 20 17 17 16 15 15 15 15 14 15 13 12 11 9 8 8 8 8 12 14 16 14 14 15 13 12 12
43 42 41 40 38 36 35 36 37 36 31 30 29 30 32 32 33 33 32 35 36 40 39 36 38 39 39 43 48 48 51 48 46 51 49 46 38 35 32 28 36 35 32 35 36 30 29 40 36 32 35 34 34 35 33 30 27 24 22 20 19 17 18 17 18 18 19 18 15 13 14 13 10 9 9 9 8 13 18 14 13 15 13 14 13
44 42 41 41 40 38 36 36 36 34 33 32 29 28 28 30 32 33 34 35 36 37 35 38 38 38 41 45 52 51 51 49 51 52 54 50 44 40 37 37 34 31 30 32 33 30 33 40 44 40 39 37 37 37 36 33 29 27 25 23 20 20 20 23 23 20 20 19 18 17 17 18 18 17 16 15 16 16 18 14 12 12 11 12 14
44 42 40 40 40 39 38 38 37 36 35 33 33 31 29 29 30 32 34 34 36 37 37 36 37 37 38 41 44 45 49 53 55 57 57 55 49 44 43 38 33 33 33 35 31 33 35 36 38 39 39 41 41 40 38 35 31 28 28 26 24 23 26 24 21 21 20 19 18 18 17 17 16 17 17 17 20 24 20 18 16 15 15 13 14
nan nan 40 40 39 40 40 39 38 39 nan 38 37 nan nan 31 29 29 32 32 33 35 34 32 32 34 34 35 36 38 43 48 53 58 60 59 56 52 50 46 44 41 39 40 37 38 37 36 36 39 39 43 43 41 37 35 32 31 29 27 27 29 26 21 21 19 21 21 21 20 20 21 21 21 21 23 22 22 23 22 22 21 20 18 17
nan nan nan 40 39 39 38 nan 37 nan nan nan 39 37 36 nan nan 30 29 32 32 31 28 27 28 30 30 29 29 31 35 39 39 48 53 56 56 54 49 49 45 41 41 43 38 36 37 37 38 42 42 40 41 39 36 34 34 33 30 29 28 26 25 24 24 25 27 26 26 25 25 24 23 25 25 24 25 25 24 23 22 20 19 19 18
nan nan nan nan 39 38 nan nan nan nan nan nan nan 37 37 nan nan nan nan nan nan 31 29 30 30 29 30 30 29 28 28 27 29 35 42 47 50 50 48 46 43 42 43 39 40 41 43 38 38 43 42 39 37 37 35 35 35 32 27 25 25 28 28 28 28 29 29 29 28 27 27 26 27 27 26 26 26 27 25 23 22 21 21 19 18
nan nan 39 nan nan nan nan nan nan nan nan nan nan nan nan nan nan nan nan nan nan 36 34 33 31 nan nan nan nan nan 29 26 25 27 33 39 43 42 41 42 44 41 38 37 38 41 39 40 43 40 36 36 35 33 32 34 34 30 29 28 27 29 31 29 30 31 32 31 30 29 29 29 27 26 26 27 27 26 24 22 22 22 22 20 20
nan nan nan nan nan nan nan nan nan nan nan nan nan nan nan nan nan nan nan nan nan nan nan nan nan 31 30 nan nan nan nan nan 25 22 20 26 29 29 28 27 28 30 31 32 33 36 38 38 36 33 33 33 32 nan nan 32 29 28 25 25 29 31 32 31 32 34 32 31 30 31 nan nan 28 27 28 29 27 25 25 25 25 25 23 22 22
nan nan nan nan nan nan nan nan nan nan nan nan nan nan nan nan nan nan nan nan nan nan nan nan nan 29 nan nan nan nan nan nan nan 23 19 21 21 20 20 17 17 15 17 21 22 23 24 26 28 nan nan nan nan 33 34 36 35 29 nan nan nan 30 29 34 36 35 33 30 nan nan nan nan nan nan nan 28 29 30 29 28 28 27 26 nan nan
nan nan nan nan nan nan nan nan nan nan nan nan nan nan nan nan nan nan nan nan nan nan nan nan nan nan nan nan nan nan nan nan nan nan nan nan nan 20 21 19 17 14 15 18 nan nan nan nan nan nan nan nan nan nan nan nan nan 34 33 33 32 33 nan nan nan nan nan nan nan nan nan nan nan nan nan nan nan nan nan 32 30 nan nan nan nan
nan nan nan nan nan nan nan nan nan nan nan nan nan nan nan nan nan nan nan nan nan nan nan nan nan nan nan nan nan nan nan nan nan nan nan nan nan nan nan nan nan nan nan nan nan nan nan nan nan nan nan nan nan nan nan nan 32 33 nan nan nan nan nan nan nan nan nan nan nan nan nan nan nan nan nan nan nan nan nan nan nan nan nan nan nan
nan nan nan nan nan nan nan nan nan nan nan nan nan nan nan nan nan nan nan nan nan nan nan nan nan nan nan nan nan nan nan nan nan nan nan nan nan nan nan nan nan nan nan nan nan nan nan nan nan nan nan 27 28 28 30 32 31 nan nan nan nan nan nan nan nan nan nan nan nan nan nan nan nan nan nan nan nan nan nan nan nan nan nan nan nan
nan nan nan nan nan nan nan nan nan nan nan nan nan nan nan nan nan nan nan nan nan nan nan nan nan nan nan nan nan nan nan nan nan nan nan nan nan nan nan nan nan nan nan nan nan nan nan nan nan nan nan nan nan nan nan nan nan nan nan nan nan nan nan nan nan nan nan nan nan nan nan nan nan nan nan nan nan nan nan nan nan nan nan nan nan
nan nan nan nan nan nan nan nan nan nan nan nan nan nan nan nan nan nan nan nan nan nan nan nan nan nan nan nan nan nan nan nan nan nan nan nan nan nan nan nan nan nan nan nan nan 29 nan nan nan nan nan nan nan nan nan nan nan nan nan nan nan nan nan nan nan nan nan nan nan nan nan nan nan nan nan nan nan nan nan nan nan nan nan nan nan
nan nan nan nan nan nan nan nan nan nan nan nan nan nan nan nan nan nan nan nan nan nan nan nan nan nan nan nan nan nan nan nan nan nan nan nan nan nan nan nan nan nan nan nan nan nan nan nan nan nan nan nan nan nan nan nan nan nan nan nan nan nan nan nan nan nan nan nan nan nan nan nan nan nan nan nan nan nan nan nan nan nan nan nan nan
nan nan nan nan nan nan nan nan nan nan nan nan nan nan nan nan nan nan nan nan nan nan nan nan nan nan nan nan nan nan nan nan nan nan nan nan nan nan nan nan nan nan nan nan nan nan nan nan nan nan nan nan nan nan nan nan nan nan nan nan nan nan nan nan nan nan nan nan nan nan nan nan nan nan nan nan nan nan nan nan nan nan nan nan nan
nan nan nan nan nan nan nan nan nan nan nan nan nan nan nan nan nan nan nan nan nan nan nan nan nan nan nan nan nan nan nan nan nan nan nan nan nan nan nan nan nan nan nan nan nan nan nan nan nan nan nan nan nan nan nan nan nan nan nan nan nan nan nan nan nan nan nan nan nan nan nan nan nan nan nan nan nan nan nan nan nan nan nan nan nan
nan nan nan nan nan nan nan nan nan nan nan nan nan nan nan nan nan nan nan nan nan nan nan nan nan nan nan nan nan nan nan nan nan nan nan nan nan nan nan nan nan nan nan nan nan nan nan nan nan nan nan nan nan nan nan nan nan nan nan nan nan nan nan nan nan nan nan nan nan nan nan nan nan nan nan nan nan nan nan nan nan nan nan nan nan
nan nan nan nan nan nan nan nan nan nan nan nan nan nan nan nan nan nan nan nan nan nan nan nan nan nan nan nan nan nan nan nan nan nan nan nan nan nan nan nan nan nan nan nan nan nan nan nan nan nan nan nan nan nan nan nan nan nan nan nan nan nan nan nan nan nan nan nan nan nan nan nan nan nan nan nan nan nan nan nan nan nan nan nan nan
nan nan nan nan nan nan nan nan nan nan nan nan nan nan nan nan nan nan nan nan nan nan nan nan nan nan nan nan nan nan nan nan nan nan nan nan nan nan nan nan nan nan nan nan nan nan nan nan nan nan nan nan nan nan nan nan nan nan nan nan nan nan nan nan nan nan nan nan nan nan nan nan nan nan nan nan nan nan nan nan nan nan nan nan nan
nan nan nan nan nan nan nan nan nan nan nan nan nan nan nan nan nan nan nan nan nan nan nan nan nan nan nan nan nan nan nan nan nan nan nan nan nan nan nan nan nan nan nan nan nan nan nan nan nan nan nan nan nan nan nan nan nan nan nan nan nan nan nan nan nan nan nan nan nan nan nan nan nan nan nan nan nan nan nan nan nan nan nan nan nan
nan nan nan nan nan nan nan nan nan nan nan nan nan nan nan nan nan nan nan nan nan nan nan nan nan nan nan nan nan nan nan nan nan nan nan nan nan nan nan nan nan nan nan nan nan nan nan nan nan nan nan nan nan nan nan nan nan nan nan nan nan nan nan nan nan nan nan nan nan nan nan nan nan nan nan nan nan nan nan nan nan nan nan nan nan
nan nan nan nan nan nan nan nan nan nan nan nan nan nan nan nan nan nan nan nan nan nan nan nan nan nan nan nan nan nan nan nan nan nan nan nan nan nan nan nan nan nan nan nan nan nan nan nan nan nan nan nan nan nan nan nan nan nan nan nan nan nan nan nan nan nan nan nan nan nan nan nan nan nan nan nan nan nan nan nan nan nan nan nan nan
nan nan nan nan nan nan nan nan nan nan nan nan nan nan nan nan nan nan nan nan nan nan nan nan nan nan nan nan nan nan nan nan nan nan nan nan nan nan nan nan nan nan nan nan nan nan nan nan nan nan nan nan nan nan nan nan nan nan nan nan nan nan nan nan nan nan nan nan nan nan nan nan nan nan nan nan nan nan nan nan nan nan nan nan nan
nan nan nan nan nan nan nan nan nan nan nan nan nan nan nan nan nan nan nan nan nan nan nan nan nan nan nan nan nan nan nan nan nan nan nan nan nan nan nan nan nan nan nan nan nan nan nan nan nan nan nan nan nan nan nan nan nan nan nan nan nan nan nan nan nan nan nan nan nan nan nan nan nan nan nan nan nan nan nan nan nan nan nan nan nan
nan nan nan nan nan nan nan nan nan nan nan nan nan nan nan nan nan nan nan nan nan nan nan nan nan nan nan nan nan nan nan nan nan nan nan nan nan nan nan nan nan nan nan nan nan nan nan nan nan nan nan nan nan nan nan nan nan nan nan nan nan nan nan nan nan nan nan nan nan nan nan nan nan nan nan nan nan nan nan nan nan nan nan nan nan
nan nan nan nan nan nan nan nan nan nan nan nan nan nan nan nan nan nan nan nan nan nan nan nan nan nan nan nan nan nan nan nan nan nan nan nan nan nan nan nan nan nan nan nan nan nan nan nan nan nan nan nan nan nan nan nan nan nan nan nan nan nan nan nan nan nan nan nan nan nan nan nan nan nan nan nan nan nan nan nan nan nan nan nan nan
nan nan nan nan nan nan nan nan nan nan nan nan nan nan nan nan nan nan nan nan nan nan nan nan nan nan nan nan nan nan nan nan nan nan nan nan nan nan nan nan nan nan nan nan nan nan nan nan nan nan nan nan nan nan nan nan nan nan nan nan nan nan nan nan nan nan nan nan nan nan nan nan nan nan nan nan nan nan nan nan nan nan nan nan nan
nan nan nan nan nan nan nan nan nan nan nan nan nan nan nan nan nan nan nan nan nan nan nan nan nan nan nan nan nan nan nan nan nan nan nan nan nan nan nan nan nan nan nan nan nan nan nan nan nan nan nan nan nan nan nan nan nan nan nan nan nan nan nan nan nan nan nan nan nan nan nan nan nan nan nan nan nan nan nan nan nan nan nan nan nan
nan nan nan nan nan nan nan nan nan nan nan nan nan nan nan nan nan nan nan nan nan nan nan nan nan nan nan nan nan nan nan nan nan nan nan nan nan nan nan nan nan nan nan nan nan nan nan nan nan nan nan nan nan nan nan nan nan nan nan nan nan nan nan nan nan nan nan nan nan nan nan nan nan nan nan nan nan nan nan nan nan nan nan nan nan
nan nan nan nan nan nan nan nan nan nan nan nan nan nan nan nan nan nan nan nan nan nan nan nan nan nan nan nan nan nan nan nan nan nan nan nan nan nan nan nan nan nan nan nan nan nan nan nan nan nan nan nan nan nan nan nan nan nan nan nan nan nan nan nan nan nan nan nan nan nan nan nan nan nan nan nan nan nan nan nan nan nan nan nan nan
nan nan nan nan nan nan nan nan nan nan nan nan nan nan nan nan nan nan nan nan nan nan nan nan nan nan nan nan nan nan nan nan nan nan nan nan nan nan nan nan nan nan nan nan nan nan nan nan nan nan nan nan nan nan nan nan nan nan nan nan nan nan nan nan nan nan nan nan nan nan nan nan nan nan nan nan nan nan nan nan nan nan nan nan nan
nan nan nan nan nan nan nan nan nan nan nan nan nan nan nan nan nan nan nan nan nan nan nan nan nan nan nan nan nan nan nan nan nan nan nan nan nan nan nan nan nan nan nan nan nan nan nan nan nan nan nan nan nan nan nan nan nan nan nan nan nan nan nan nan nan nan nan nan nan nan nan nan nan nan nan nan nan nan nan nan nan nan nan nan nan
nan nan nan nan nan nan nan nan nan nan nan nan nan nan nan nan nan nan nan nan nan nan nan nan nan nan nan nan nan nan nan nan nan nan nan nan nan nan nan nan nan nan nan nan nan nan nan nan nan nan nan nan nan nan nan nan nan nan nan nan nan nan nan nan nan nan nan nan nan nan nan nan nan nan nan nan nan nan nan nan nan nan nan nan nan
Wind_Direction
271 265 264 267 269 272 273 269 270 265 261 262 256 255 256 250 252 251 259 251 257 267 266 260 263 270 276 284 289 290 285 284 286 287 292 306 321 312 324 305 346 302 312 269 211 259 260 258 221 223 206 195 211 221 227 254 266 275 276 279 275 282 286 288 264 244 255 245 257 264 251 253 269 270 277 276 263 261 242 263 248 232 236 242 224
270 267 261 267 272 271 271 272 272 268 270 267 264 260 256 262 257 255 258 264 256 260 268 271 273 273 279 283 282 284 289 283 284 290 295 302 309 304 318 308 321 278 234 266 278 206 258 289 286 183 293 245 202 195 213 226 234 240 262 262 261 258 268 260 244 223 193 216 231 242 270 295 302 287 278 277 288 288 263 236 222 215 226 226 223
274 271 268 264 269 270 270 272 270 275 275 269 271 268 266 264 265 264 262 265 269 260 269 272 273 277 274 278 282 281 287 295 296 294 295 300 301 276 278 294 300 281 272 267 226 245 272 255 141 252 222 257 265 243 221 216 217 217 214 218 216 216 226 234 235 215 179 184 200 204 248 253 296 317 336 322 306 317 271 192 184 194 200 203 219
276 277 273 269 269 268 267 264 271 272 273 268 269 270 269 270 268 267 267 264 267 272 264 268 275 277 279 275 281 281 285 289 293 299 301 297 291 294 278 265 268 264 246 231 226 223 201 207 183 182 198 206 224 219 218 218 222 230 214 224 235 222 223 226 258 249 199 160 181 181 199 204 192 127 118 168 150 203 198 200 184 190 199 205 222
281 281 281 279 274 267 268 266 264 265 265 264 270 270 270 270 270 267 271 268 264 268 271 264 266 274 277 280 279 279 279 282 285 288 295 296 298 299 295 295 294 289 275 254 237 214 208 193 191 196 211 224 224 226 226 221 233 222 218 229 234 234 236 234 227 226 219 187 180 191 189 192 189 150 153 164 186 196 224 226 208 209 232 234 242
282 284 281 283 283 284 276 270 266 264 261 261 262 265 268 269 272 278 271 269 271 267 269 271 268 270 269 270 272 274 273 272 277 280 283 289 291 290 294 298 298 296 292 290 286 277 242 241 226 204 199 207 211 216 216 203 205 202 207 225 224 224 226 229 243 255 258 247 222 195 221 199 216 230 212 201 187 201 213 232 238 244 253 254 260
272 276 278 281 282 286 287 281 273 269 265 260 261 260 260 265 263 262 274 275 273 271 271 273 272 272 272 269 269 269 269 272 271 277 275 274 281 286 292 295 295 292 297 298 291 282 273 259 257 247 231 218 210 210 225 246 251 206 223 223 230 237 237 245 250 242 238 235 237 237 223 231 230 223 227 226 226 229 225 233 252 258 264 265 268
260 266 270 273 275 279 280 282 280 272 268 264 258 256 257 258 264 261 259 271 274 273 274 275 274 272 274 274 271 269 271 269 271 270 272 271 275 280 279 282 284 288 291 295 294 285 280 272 259 260 265 268 257 243 238 234 245 247 245 246 247 247 244 244 248 252 253 249 254 245 243 245 254 250 240 254 251 260 251 240 242 255 271 287 288
257 261 264 266 269 269 267 274 275 273 270 265 261 255 256 258 257 257 257 257 266 271 271 270 273 275 273 271 269 269 270 272 267 269 267 267 264 268 272 279 284 283 284 282 290 294 288 283 283 277 267 258 265 251 230 225 228 227 228 231 237 244 250 255 257 262 265 265 266 269 270 275 272 269 253 249 243 236 242 240 247 251 259 266 277
259 256 257 260 259 261 261 259 266 272 274 271 267 266 261 256 256 259 259 259 257 259 264 269 272 272 272 272 271 268 266 263 266 271 270 265 267 259 254 249 255 273 276 277 275 280 287 285 281 270 256 254 268 278 283 284 260 230 232 237 235 242 252 253 255 258 264 268 265 264 258 253 250 252 244 242 243 242 243 250 250 251 256 262 276
272 264 259 258 259 254 255 259 257 261 267 268 270 270 267 262 258 257 257 256 255 257 258 264 268 270 274 273 273 270 265 260 272 274 267 256 260 268 268 271 273 268 270 269 270 268 270 273 274 288 298 300 296 301 301 292 279 266 251 238 237 240 236 237 243 243 247 245 243 244 246 245 246 253 265 253 253 251 248 251 249 255 260 258 261
273 273 269 266 265 263 261 261 257 251 248 258 265 265 264 264 260 259 259 260 258 258 261 262 263 266 270 273 272 269 264 265 277 277 278 276 268 262 260 263 266 269 272 270 269 270 269 273 278 283 287 290 287 294 299 297 287 284 277 266 256 251 252 256 251 251 248 244 244 246 243 248 249 254 258 260 260 256 256 256 265 261 255 255 262
274 272 267 266 270 269 267 267 266 267 266 257 255 259 259 260 263 263 264 262 261 262 260 262 264 264 262 264 268 266 264 271 278 278 278 276 274 266 263 259 256 257 259 263 263 261 259 261 258 253 254 245 270 279 276 284 293 303 299 290 284 279 280 287 294 288 262 255 249 252 258 251 249 258 256 252 255 255 263 272 268 263 264 263 268
258 261 261 261 264 267 265 265 270 269 265 260 257 260 260 258 256 260 260 261 265 264 266 265 261 260 260 260 261 262 254 259 271 280 279 277 274 269 263 259 257 257 255 255 258 259 261 262 263 260 259 255 247 246 254 262 266 270 277 281 277 291 306 332 338 345 325 301 282 268 262 257 256 254 258 262 260 261 262 265 265 263 270 284 270
259 255 254 251 246 244 259 272 270 269 266 263 261 262 263 258 257 256 260 260 258 262 261 263 261 261 259 257 256 257 254 247 248 251 259 266 268 264 260 258 258 260 262 263 265 263 257 256 255 256 252 254 253 245 255 258 261 267 264 266 281 273 279 283 290 290 291 294 296 294 286 281 277 264 259 261 262 268 272 268 267 278 288 295 297
259 259 258 258 259 256 254 257 263 267 270 266 264 265 265 263 260 256 257 257 256 256 258 255 257 254 248 244 241 248 254 253 252 252 251 255 258 263 261 261 263 263 265 265 259 261 258 251 249 252 258 261 248 245 247 253 257 257 260 266 267 273 269 272 270 269 266 269 275 274 272 270 265 267 270 271 271 277 277 275 277 282 286 279 280
260 259 260 260 260 259 258 258 254 251 250 261 270 269 267 264 260 255 256 254 252 249 250 251 250 257 259 258 258 256 251 246 247 251 253 250 253 260 258 255 259 261 261 263 260 255 256 259 259 265 268 263 255 251 248 251 261 261 264 264 265 261 262 264 284 277 272 281 281 275 269 268 277 286 292 299 296 284 275 275 282 275 269 269 267
261 259 258 258 258 257 258 258 258 259 262 265 264 260 258 257 257 256 254 252 254 255 255 255 259 259 262 261 255 255 252 246 243 245 246 247 248 252 252 251 248 244 241 244 251 255 256 252 251 261 262 261 259 258 256 260 265 265 263 263 260 260 259 257 258 264 286 294 291 298 304 305 306 314 315 315 315 296 292 290 280 272 273 271 268
259 259 259 258 256 255 254 255 259 261 260 260 260 263 263 261 262 259 259 257 258 262 263 262 260 257 257 262 257 256 254 249 242 242 244 243 244 249 249 250 253 256 252 252 254 257 260 256 261 262 264 264 261 259 255 256 262 262 261 261 263 261 263 258 256 253 254 256 263 271 280 294 301 300 304 325 330 319 305 304 283 279 275 273 270
255 257 259 260 258 257 255 254 254 256 259 259 257 257 261 263 260 259 256 256 260 258 257 261 264 258 260 263 263 260 256 252 247 243 241 241 241 249 251 254 252 253 252 257 257 258 261 266 264 267 271 269 266 264 264 261 261 259 258 260 261 263 258 255 260 262 260 260 261 264 269 275 283 285 284 287 295 302 302 295 291 281 276 279 280
nan nan 252 255 255 257 256 254 254 254 nan 256 257 nan nan 262 265 263 260 259 258 257 260 260 259 258 257 258 259 257 258 258 253 247 244 242 239 243 252 249 247 249 255 257 254 254 259 263 263 264 261 260 262 260 263 266 267 263 263 265 262 261 260 266 268 268 273 271 270 270 271 272 275 280 280 276 275 275 275 281 292 299 297 288 282
nan nan nan 247 249 250 250 nan 254 nan nan nan 255 256 256 nan nan 260 255 255 252 250 250 259 261 258 259 261 264 265 260 258 258 251 247 245 243 241 249 251 249 249 247 255 260 258 255 253 256 259 256 255 254 258 259 262 267 265 265 263 257 261 268 271 273 278 277 274 272 270 269 271 274 273 273 275 272 273 272 274 276 276 280 282 282
nan nan nan nan 248 250 nan nan nan nan nan nan nan 253 252 nan nan nan nan nan nan 255 259 263 265 264 265 268 273 274 274 271 261 260 255 250 245 246 248 249 244 250 253 248 249 253 255 256 258 261 255 254 254 255 259 260 264 267 269 268 267 268 270 275 277 277 277 275 274 273 272 273 271 269 270 269 271 270 270 271 271 275 279 286 293
nan nan 246 nan nan nan nan nan nan nan nan nan nan nan nan nan nan nan nan nan nan 261 263 266 268 nan nan nan nan nan 284 285 271 262 261 256 249 250 252 252 251 249 244 246 250 251 253 253 255 252 253 254 256 258 260 266 264 259 262 266 269 271 273 275 278 275 274 276 274 271 271 268 268 270 269 269 269 270 272 274 278 280 283 287 293
nan nan nan nan nan nan nan nan nan nan nan nan nan nan nan nan nan nan nan nan nan nan nan nan nan 266 269 nan nan nan nan nan 278 279 274 261 253 251 257 257 249 248 245 244 245 249 250 251 252 253 256 256 255 nan nan 263 270 270 269 268 269 271 274 274 270 271 273 273 272 270 nan nan 268 269 269 268 268 274 278 277 277 278 281 285 288
nan nan nan nan nan nan nan nan nan nan nan nan nan nan nan nan nan nan nan nan nan nan nan nan nan 262 nan nan nan nan nan nan nan 271 268 264 267 272 264 267 258 253 252 249 245 248 256 259 260 nan nan nan nan 262 261 259 271 278 nan nan nan 271 273 269 267 267 269 269 nan nan nan nan nan nan nan 271 274 274 275 278 277 278 278 nan nan
nan nan nan nan nan nan nan nan nan nan nan nan nan nan nan nan nan nan nan nan nan nan nan nan nan nan nan nan nan nan nan nan nan nan nan nan nan 258 274 273 289 280 263 263 nan nan nan nan nan nan nan nan nan nan nan nan nan 268 269 271 273 267 nan nan nan nan nan nan nan nan nan nan nan nan nan nan nan nan nan 277 278 nan nan nan nan
nan nan nan nan nan nan nan nan nan nan nan nan nan nan nan nan nan nan nan nan nan nan nan nan nan nan nan nan nan nan nan nan nan nan nan nan nan nan nan nan nan nan nan nan nan nan nan nan nan nan nan nan nan nan nan nan 264 265 nan nan nan nan nan nan nan nan nan nan nan nan nan nan nan nan nan nan nan nan nan nan nan nan nan nan nan
nan nan nan nan nan nan nan nan nan nan nan nan nan nan nan nan nan nan nan nan nan nan nan nan nan nan nan nan nan nan nan nan nan nan nan nan nan nan nan nan nan nan nan nan nan nan nan nan nan nan nan 273 270 269 270 272 273 nan nan nan nan nan nan nan nan nan nan nan nan nan nan nan nan nan nan nan nan nan nan nan nan nan nan nan nan
nan nan nan nan nan nan nan nan nan nan nan nan nan nan nan nan nan nan nan nan nan nan nan nan nan nan nan nan nan nan nan nan nan nan nan nan nan nan nan nan nan nan nan nan nan nan nan nan nan nan nan nan nan nan nan nan nan nan nan nan nan nan nan nan nan nan nan nan nan nan nan nan nan nan nan nan nan nan nan nan nan nan nan nan nan
nan nan nan nan nan nan nan nan nan nan nan nan nan nan nan nan nan nan nan nan nan nan nan nan nan nan nan nan nan nan nan nan nan nan nan nan nan nan nan nan nan nan nan nan nan 268 nan nan nan nan nan nan nan nan nan nan nan nan nan nan nan nan nan nan nan nan nan nan nan nan nan nan nan nan nan nan nan nan nan nan nan nan nan nan nan
nan nan nan nan nan nan nan nan nan nan nan nan nan nan nan nan nan nan nan nan nan nan nan nan nan nan nan nan nan nan nan nan nan nan nan nan nan nan nan nan nan nan nan nan nan nan nan nan nan nan nan nan nan nan nan nan nan nan nan nan nan nan nan nan nan nan nan nan nan nan nan nan nan nan nan nan nan nan nan nan nan nan nan nan nan
nan nan nan nan nan nan nan nan nan nan nan nan nan nan nan nan nan nan nan nan nan nan nan nan nan nan nan nan nan nan nan nan nan nan nan nan nan nan nan nan nan nan nan nan nan nan nan nan nan nan nan nan nan nan nan nan nan nan nan nan nan nan nan nan nan nan nan nan nan nan nan nan nan nan nan nan nan nan nan nan nan nan nan nan nan
nan nan nan nan nan nan nan nan nan nan nan nan nan nan nan nan nan nan nan nan nan nan nan nan nan nan nan nan nan nan nan nan nan nan nan nan nan nan nan nan nan nan nan nan nan nan nan nan nan nan nan nan nan nan nan nan nan nan nan nan nan nan nan nan nan nan nan nan nan nan nan nan nan nan nan nan nan nan nan nan nan nan nan nan nan
nan nan nan nan nan nan nan nan nan nan nan nan nan nan nan nan nan nan nan nan nan nan nan nan nan nan nan nan nan nan nan nan nan nan nan nan nan nan nan nan nan nan nan nan nan nan nan nan nan nan nan nan nan nan nan nan nan nan nan nan nan nan nan nan nan nan nan nan nan nan nan nan nan nan nan nan nan nan nan nan nan nan nan nan nan
nan nan nan nan nan nan nan nan nan nan nan nan nan nan nan nan nan nan nan nan nan nan nan nan nan nan nan nan nan nan nan nan nan nan nan nan nan nan nan nan nan nan nan nan nan nan nan nan nan nan nan nan nan nan nan nan nan nan nan nan nan nan nan nan nan nan nan nan nan nan nan nan nan nan nan nan nan nan nan nan nan nan nan nan nan
nan nan nan nan nan nan nan nan nan nan nan nan nan nan nan nan nan nan nan nan nan nan nan nan nan nan nan nan nan nan nan nan nan nan nan nan nan nan nan nan nan nan nan nan nan nan nan nan nan nan nan nan nan nan nan nan nan nan nan nan nan nan nan nan nan nan nan nan nan nan nan nan nan nan nan nan nan nan nan nan nan nan nan nan nan
nan nan nan nan nan nan nan nan nan nan nan nan nan nan nan nan nan nan nan nan nan nan nan nan nan nan nan nan nan nan nan nan nan nan nan nan nan nan nan nan nan nan nan nan nan nan nan nan nan nan nan nan nan nan nan nan nan nan nan nan nan nan nan nan nan nan nan nan nan nan nan nan nan nan nan nan nan nan nan nan nan nan nan nan nan
nan nan nan nan nan nan nan nan nan nan nan nan nan nan nan nan nan nan nan nan nan nan nan nan nan nan nan nan nan nan nan nan nan nan nan nan nan nan nan nan nan nan nan nan nan nan nan nan nan nan nan nan nan nan nan nan nan nan nan nan nan nan nan nan nan nan nan nan nan nan nan nan nan nan nan nan nan nan nan nan nan nan nan nan nan
nan nan nan nan nan nan nan nan nan nan nan nan nan nan nan nan nan nan nan nan nan nan nan nan nan nan nan nan nan nan nan nan nan nan nan nan nan nan nan nan nan nan nan nan nan nan nan nan nan nan nan nan nan nan nan nan nan nan nan nan nan nan nan nan nan nan nan nan nan nan nan nan nan nan nan nan nan nan nan nan nan nan nan nan nan
nan nan nan nan nan nan nan nan nan nan nan nan nan nan nan nan nan nan nan nan nan nan nan nan nan nan nan nan nan nan nan nan nan nan nan nan nan nan nan nan nan nan nan nan nan nan nan nan nan nan nan nan nan nan nan nan nan nan nan nan nan nan nan nan nan nan nan nan nan nan nan nan nan nan nan nan nan nan nan nan nan nan nan nan nan
nan nan nan nan nan nan nan nan nan nan nan nan nan nan nan nan nan nan nan nan nan nan nan nan nan nan nan nan nan nan nan nan nan nan nan nan nan nan nan nan nan nan nan nan nan nan nan nan nan nan nan nan nan nan nan nan nan nan nan nan nan nan nan nan nan nan nan nan nan nan nan nan nan nan nan nan nan nan nan nan nan nan nan nan nan
nan nan nan nan nan nan nan nan nan nan nan nan nan nan nan nan nan nan nan nan nan nan nan nan nan nan nan nan nan nan nan nan nan nan nan nan nan nan nan nan nan nan nan nan nan nan nan nan nan nan nan nan nan nan nan nan nan nan nan nan nan nan nan nan nan nan nan nan nan nan nan nan nan nan nan nan nan nan nan nan nan nan nan nan nan
nan nan nan nan nan nan nan nan nan nan nan nan nan nan nan nan nan nan nan nan nan nan nan nan nan nan nan nan nan nan nan nan nan nan nan nan nan nan nan nan nan nan nan nan nan nan nan nan nan nan nan nan nan nan nan nan nan nan nan nan nan nan nan nan nan nan nan nan nan nan nan nan nan nan nan nan nan nan nan nan nan nan nan nan nan
nan nan nan nan nan nan nan nan nan nan nan nan nan nan nan nan nan nan nan nan nan nan nan nan nan nan nan nan nan nan nan nan nan nan nan nan nan nan nan nan nan nan nan nan nan nan nan nan nan nan nan nan nan nan nan nan nan nan nan nan nan nan nan nan nan nan nan nan nan nan nan nan nan nan nan nan nan nan nan nan nan nan nan nan nan
nan nan nan nan nan nan nan nan nan nan nan nan nan nan nan nan nan nan nan nan nan nan nan nan nan nan nan nan nan nan nan nan nan nan nan nan nan nan nan nan nan nan nan nan nan nan nan nan nan nan nan nan nan nan nan nan nan nan nan nan nan nan nan nan nan nan nan nan nan nan nan nan nan nan nan nan nan nan nan nan nan nan nan nan nan
nan nan nan nan nan nan nan nan nan nan nan nan nan nan nan nan nan nan nan nan nan nan nan nan nan nan nan nan nan nan nan nan nan nan nan nan nan nan nan nan nan nan nan nan nan nan nan nan nan nan nan nan nan nan nan nan nan nan nan nan nan nan nan nan nan nan nan nan nan nan nan nan nan nan nan nan nan nan nan nan nan nan nan nan nan
nan nan nan nan nan nan nan nan nan nan nan nan nan nan nan nan nan nan nan nan nan nan nan nan nan nan nan nan nan nan nan nan nan nan nan nan nan nan nan nan nan nan nan nan nan nan nan nan nan nan nan nan nan nan nan nan nan nan nan nan nan nan nan nan nan nan nan nan nan nan nan nan nan nan nan nan nan nan nan nan nan nan nan nan nan
nan nan nan nan nan nan nan nan nan nan nan nan nan nan nan nan nan nan nan nan nan nan nan nan nan nan nan nan nan nan nan nan nan nan nan nan nan nan nan nan nan nan nan nan nan nan nan nan nan nan nan nan nan nan nan nan nan nan nan nan nan nan nan nan nan nan nan nan nan nan nan nan nan nan nan nan nan nan nan nan nan nan nan nan nan
nan nan nan nan nan nan nan nan nan nan nan nan nan nan nan nan nan nan nan nan nan nan nan nan nan nan nan nan nan nan nan nan nan nan nan nan nan nan nan nan nan nan nan nan nan nan nan nan nan nan nan nan nan nan nan nan nan nan nan nan nan nan nan nan nan nan nan nan nan nan nan nan nan nan nan nan nan nan nan nan nan nan nan nan nan
nan nan nan nan nan nan nan nan nan nan nan nan nan nan nan nan nan nan nan nan nan nan nan nan nan nan nan nan nan nan nan nan nan nan nan nan nan nan nan nan nan nan nan nan nan nan nan nan nan nan nan nan nan nan nan nan nan nan nan nan nan nan nan nan nan nan nan nan nan nan nan nan nan nan nan nan nan nan nan nan nan nan nan nan nan